Regional Weather Roundup
Issued by NWS

Home | Current Version | Previous Version | Text Only | Print | Product List | Glossary On
Versions: 1 2 3 4 5 6 7 8 9 10 11 12 13 14 15 16 17 18 19 20 21 22 23 24 25 26 27 28 29 30 31 32 33 34 35 36 37 38 39 40 41 42 43 44 45 46 47 48 49 50
000
ASCA44 KEWX 231420
RWRMX

LATIN AMERICA AND CARIBBEAN REGIONAL WEATHER ROUNDUP
NATIONAL WEATHER SERVICE AUSTIN/SAN ANTONIO TX
900 AM CDT TUE SEP 23 2014

NOTE: "FAIR" INDICATED FEW OR NO CLOUDS BELOW 12,000 FEET WITH NO
SIGNIFICANT WEATHER AND/OR OBSTRUCTIONS TO VISIBILITY.

BAJA CALIFORNIA

CITY           SKY/WX    TMP DP  RH WIND       PRES   REMARKS
MEXICALI       CLEAR     73  66  78 S3        29.88
TIJUANA        PTCLDY    64  61  88 CALM      29.97R FOG

NORTHWESTERN MEXICO

CITY           SKY/WX    TMP DP  RH WIND       PRES   REMARKS
CULIACAN       PTSUNNY   81  79  94 CALM      29.87
DURANGO        CLOUDY    61  57  88 CALM      30.31R
GUAYMAS        CLEAR     84  79  84 CALM      29.82  HX  96
HERMOSILLO     CLEAR     81  77  89 CALM      29.91
CD. JUAREZ     PTSUNNY   66  57  72 NE6       30.12
OBREGON        MOSUNNY   79  73  83 E2        29.83

NORTHEASTERN MEXICO

CITY           SKY/WX    TMP DP  RH WIND       PRES   REMARKS
CHIHUAHUA      PTSUNNY   64  64 100 NW3       30.23
MATAMOROS        N/A    N/A N/A N/A MISG        N/A
MONCLOVA       PTSUNNY   77  54  44 CALM      30.12
MONTERREY      PTSUNNY   70  68  94 NW5       30.10R
NUEVO LAREDO   MOSUNNY   75  75 100 CALM      30.09
PIEDRAS NEGRAS PTSUNNY   75  64  69 SE7       30.10R
REYNOSA        MOSUNNY   73  70  88 N6        30.05
SALTILLO       PTSUNNY   66  52  59 S7        30.29R
TORREON        PTSUNNY   68  57  68 CALM      30.19R
CD. VICTORIA   RAIN      70  70 100 NW5       30.08

WESTERN MEXICO

CITY           SKY/WX    TMP DP  RH WIND       PRES   REMARKS
AGUASCALIENTES MOSUNNY   59  57  94 NE5       30.30
COLIMA         MOSUNNY   72  68  88 NE67      29.98R
DEL BAJIO      CLOUDY    64  59  82 CALM      30.30R
GUADALAJARA    PTSUNNY   63  61  94 SE3       30.18
MANZANILLO     MOSUNNY   77  68  73 N7        29.82R
MAZATLAN       PTSUNNY   77  73  88 NW8       29.85R
P. VALLARTA    CLOUDY    79  75  89 CALM      29.85R
URUAPAN        MOSUNNY   63  61  94 W7        30.17
ZACATECAS      CLOUDY    57  52  82 E5        30.34R

CENTRAL MEXICO

CITY           SKY/WX    TMP DP  RH WIND       PRES   REMARKS
CUERNAVACA     PTSUNNY   70  59  68 CALM      30.14R
MEXICO CITY    PTSUNNY   61  52  72 N8        30.34R
MORELIA        PTSUNNY   57  57 100 CALM      30.24
POZA RICA      PTSUNNY   75  73  94 CALM      30.01R
PUEBLA         PTSUNNY   54  50  87 N7        30.35R
QUERETARO      CLOUDY    63  59  88 E6        30.33R
S. LUIS POTOSI CLOUDY    61  57  88 CALM      30.30R
TAMPICO        PTSUNNY   75  73  94 N6        29.98R
TOLUCA         PTSUNNY   55  41  58 CALM      30.39R

SOUTHERN MEXICO

CITY           SKY/WX    TMP DP  RH WIND       PRES   REMARKS
ACAPULCO       MOSUNNY   79  73  83 NE6       29.88R
B. DE HUATULCO PTSUNNY   77  72  83 CALM      29.92
OAXACA         PTSUNNY   61  59  94 CALM      30.24R
P. ESCONDIDO   PTSUNNY   75  70  83 NE9       30.02S
VERACRUZ       PTSUNNY   75  73  94 CALM      29.94R
ZIHUATANEJO    PTSUNNY   81  73  78 CALM      29.86R

YUCATAN PENINSULA

CITY           SKY/WX    TMP DP  RH WIND       PRES   REMARKS
CAMPECHE       MOSUNNY   79  75  89 CALM      29.93S
CANCUN         MOSUNNY   82  77  83 NE7       29.96R HX  91
CHETUMAL       LGT RAIN  75  75 100 CALM      29.96R
CD. DEL CARMEN MOSUNNY   82  73  74 E9        29.91
COZUMEL        PTSUNNY   77  77 100 N5        29.96R
MERIDA         PTSUNNY   79  70  73 S5        29.95S
MINATITLAN     CLOUDY    75  70  83 CALM      29.90  FOG
TAPACHULA      SUNNY     82  75  78 CALM      29.89S
TUX. GUTIERREZ PTSUNNY   73  70  88 NE2       29.98S FOG
VILLAHERMOSA   MOSUNNY   75  73  94 CALM      29.95R

CENTRAL AMERICA

CITY           SKY/WX    TMP DP  RH WIND       PRES   REMARKS
MANAGUA        MOSUNNY   81  75  83 SE5       29.86R

CARIBBEAN

CITY           SKY/WX    TMP DP  RH WIND       PRES   REMARKS
ARUBA          PTSUNNY   88  77  70 E12       29.89R HX 100
KINGSTON       PTSUNNY   84  72  65 NW3       29.92S
NASSAU         LGT RAIN  82  73  74 S7        30.04R
SAN JUAN       PTSUNNY   84  77  79 E9        29.97F HX  94
SANTO DOMINGO  MOSUNNY   84  77  79 E5        29.94R HX  94
ST. CROIX      MOSUNNY   88  75  66 E12       29.99S HX  97
ST. KITTS      MOSUNNY   88  77  70 E12       29.97S HX 100
ST. MAARTEN    MOSUNNY   86  73  66 E9        29.97S HX  93
ST. THOMAS     MOSUNNY   84  73  70 SE12      29.98  HX  91

$$




USA.gov is the U.S. government's official web portal to all federal, state and local government web resources and services.